User: anonymous   Login
Location: Poughquag
(41.6090°N, 73.6820°W)
Time: 08:25:26
(UTC-04:00)
Language:

VELOX 1 - Orbit

View from above orbital plane
View from above orbital plane
View from above satellite
View from above satellite

Ground track
Ground track

The orbit data is extracted from the following two-line orbital elements,

1 40057U 14034E   24199.20446943  .00006964  00000-0  79496-3 0  9998
2 40057  98.3397  55.8209 0010032  51.2940 308.9169 14.86388286542161
Epoch (UTC): 17 July 2024 04:54:26
Eccentricity: 0.0010032
inclination: 98.3397°
perigee height: 602 km
apogee height: 616 km
right ascension of ascending node: 55.8209°
argument of perigee: 51.2940°
revolutions per day: 14.86388286
mean anomaly at epoch: 308.9169°
orbit number at epoch: 54216

The dashed part of the orbit path shows where the satellite is in the earth's shadow,  

DLR